ATLAS 5 CENTAUR DEB, 44663

Orbit data source: Space-Track

ATLAS 5 CENTAUR DEB, 44663 is space debris in HEO originally from a launch on Wed, 17 Oct 2018 UTC launched from the Air Force Eastern Test Range (AFETR). Debris objects in space refer to the collection of defunct objects orbiting the Earth. Examples of debris include non-operational satellites, rocket bodies, and fragments generated from explosions, collisions, or faulty payload assembly.

Loading next visibility...
Identifier
44663, 2018-079Z
Orbit
HEO
Country
Flag of USUS
Related business
Flag of USUnited Launch Alliance/Lockheed Martin (US)
Manufacturer
ULA Decatur
Mission
Spacecraft
Bus & Motor
Unknown
Mass
Unknown
Launch date (UTC)
2018-10-17 (8 years ago)
Launch vehicle
Unknown
Launch site
Air Force Eastern Test Range (AFETR)
Object type
Payload
Rocket body
Debris
Shape & HBR
Unknown shape, 1.1 m
Radar Cross Section
Medium (>0.1 m² and <1 m²)

Expand to show TLE details & history
Last TLE update: 1 year ago

TLE from 1 year ago
0 ATLAS 5 CENTAUR DEB
1 44663U 18079Z   25083.09386392 -.00000130  00000-0  00000-0 0  9991
2 44663  12.7172  62.4944 4804708 269.2620  37.7015  1.86443226  9381
Epoch: 2025-03-24T02:15Z
TLE epoch observation values (Epoch: 2025-03-24T02:15:09.842Z)
Latitude
-0.00004°
Longitude
-153.0627°
Altitude
15,180.925 km
Speed
4.763 km/s
True Right ascension
04h 10m 10s
True Declination
0° 00' 00"
Sunlit
Object was in daylight at epoch
Visualization orbit readout
Latitude
Unknown
Longitude
Unknown
Altitude
Unknown
Speed
Unknown
Apparent Right ascension
Unknown
Apparent Declination
Unknown
Sunlit
N/A
Visualization observer readout
Local Sidereal Time
21:37:25
Azimuth
Unknown
Elevation
Unknown
Doppler factor
Unknown
Orbital elements
Apogee altitude
34,908.043 km
Perigee altitude
8,110.076 km
Semi-major axis
27,887.196 km
Eccentricity
0.48047
Inclination
12.7172°
RAAN
62.4944°
Arg. of periapsis
269.262°
True anomaly
90.82567°
Mean anomaly
37.7015°
Eccentric anomaly
62.01048°
Mean motion
0.46605 °/min
Orbital period
772.44 mins
BSTAR
0
Loading maneuver chart data...
Computing Atmospheric mass density...

Documentation

Showing up to 5 results
|